Cloud_Cover
95 13 79 85 96 100 97 100 100 100 100 100 17 5 0 2 0 0 0 0 0 23 31 91 53 62 97 100 86 39 0 23 0 0 0 3 82 10 2 33 40 22 98 16 0 0 0 0 0
100 100 93 67 77 73 100 100 100 100 95 57 6 0 0 0 0 50 17 0 0 29 48 45 56 99 100 100 77 5 0 0 0 0 2 5 100 55 5 4 3 0 0 0 0 0 0 0 10
100 100 100 100 66 80 100 100 100 100 40 5 3 0 0 0 0 10 3 0 5 37 79 64 99 40 95 100 13 5 5 4 0 0 58 51 98 89 5 9 4 0 0 0 0 0 0 0 3
100 100 100 100 100 100 87 100 100 100 90 18 5 2 0 0 0 0 2 18 14 50 82 100 100 69 100 5 26 69 5 5 5 2 100 100 100 93 28 11 5 5 0 0 0 0 0 2 0
94 77 100 100 71 86 100 100 100 100 98 5 7 5 3 0 0 24 67 46 30 54 77 53 100 23 5 5 19 20 11 5 90 5 100 100 100 100 24 45 5 4 0 0 0 0 0 4 3
87 62 64 100 100 100 100 100 100 100 100 100 100 97 96 72 57 87 69 61 46 52 79 77 100 73 5 5 60 48 100 33 100 7 100 100 100 100 100 89 18 5 0 0 0 0 0 99 100
67 76 2 0 72 100 100 100 100 100 100 100 94 95 68 99 60 100 80 50 96 56 100 100 68 32 5 5 64 82 100 69 100 67 100 100 100 100 73 70 52 5 4 0 0 0 0 36 100
0 67 4 0 0 5 60 73 66 98 100 100 61 36 40 97 100 100 100 100 100 100 100 100 99 65 61 6 8 65 62 74 95 80 100 100 100 100 27 59 45 5 5 5 0 0 0 0 0
0 71 5 0 0 0 16 5 0 0 0 5 5 1 8 6 100 100 100 100 100 100 100 100 100 57 37 52 23 72 99 100 72 100 100 100 100 100 51 45 30 39 5 5 5 4 0 0 0
0 15 2 0 1 10 1 2 0 0 0 0 0 1 5 88 100 100 100 100 100 100 100 100 100 76 93 62 64 54 94 100 41 100 100 100 100 100 100 11 70 35 5 5 5 5 1 0 0
0 0 0 0 1 8 92 99 0 0 0 0 0 0 17 100 100 100 100 98 100 100 100 100 100 95 92 100 100 100 100 99 73 100 81 100 100 100 100 8 46 97 78 28 5 5 5 5 5
0 0 0 4 4 36 48 11 61 0 0 0 0 0 90 100 100 100 100 100 100 100 100 100 100 100 80 100 100 100 100 100 100 100 100 100 100 100 100 25 58 100 89 6 5 5 5 5 5
0 0 0 0 0 5 14 82 67 1 0 0 0 0 96 100 100 100 100 100 100 100 100 100 100 100 100 100 100 100 100 100 100 88 100 100 100 100 100 99 100 100 96 5 30 14 5 5 5
0 0 0 0 0 0 0 0 16 0 0 0 0 0 60 42 71 100 100 100 100 100 100 100 100 100 100 100 100 100 100 100 100 100 100 100 100 100 100 94 100 100 94 8 89 58 5 14 5
0 0 0 0 0 0 0 2 0 0 5 0 0 0 0 1 100 100 100 100 100 100 100 100 100 100 100 100 95 100 70 94 100 100 100 100 100 100 100 100 100 100 92 100 81 64 63 44 5
0 0 5 2 93 4 4 0 0 0 1 0 0 0 36 20 76 100 100 100 100 100 100 100 100 100 100 100 100 100 100 58 99 100 100 100 100 100 100 100 100 100 100 96 24 11 84 62 42
34 87 7 8 0 2 82 18 0 0 0 4 0 0 93 76 71 100 100 100 100 100 100 100 100 99 100 100 100 100 100 100 62 100 100 100 100 100 100 100 100 100 100 100 92 88 100 15 78
61 100 47 19 2 51 9 61 5 16 52 99 78 89 98 100 100 100 100 100 100 100 100 100 100 100 100 100 99 100 99 100 97 100 100 100 100 100 100 100 100 100 100 100 72 57 100 61 15
100 100 100 5 21 20 5 5 5 16 100 100 100 100 100 100 100 100 100 100 100 100 100 100 98 99 100 100 79 100 100 100 100 100 100 100 100 100 100 100 100 100 100 100 100 100 100 100 86
66 100 73 5 94 78 3 5 100 91 100 100 100 100 100 100 100 100 100 100 100 100 100 100 90 56 99 74 100 100 100 100 100 100 100 100 99 100 100 100 100 100 100 100 100 100 100 100 100
5 100 89 52 53 95 53 27 100 100 100 100 100 100 100 100 100 100 100 100 100 100 100 100 100 100 100 40 94 100 98 31 18 98 100 100 100 100 100 100 100 100 100 100 100 100 100 100 100
5 35 19 5 5 45 100 98 100 100 100 100 100 100 100 100 100 100 100 100 100 100 100 100 100 100 100 74 32 93 100 100 96 100 100 100 100 100 100 100 100 100 100 100 100 100 100 100 100
1 0 3 5 32 99 91 100 100 100 100 100 100 100 100 100 100 100 100 100 100 100 100 100 100 100 100 100 82 97 100 100 100 66 81 100 100 100 100 100 100 100 100 100 100 100 100 100 100
0 0 27 94 76 100 90 100 100 100 100 100 100 100 100 100 100 100 100 100 100 100 100 100 100 100 100 100 88 100 100 100 100 95 86 92 98 100 100 93 100 100 100 100 100 100 100 100 100
1 4 38 100 100 93 100 100 100 100 100 100 100 100 100 100 100 100 100 100 100 100 100 100 100 100 100 100 100 94 100 100 100 100 100 100 100 100 100 100 100 100 100 100 100 100 100 100 92
7 31 30 100 100 100 100 100 100 100 100 100 100 100 100 100 100 100 100 100 100 100 100 100 100 100 100 100 100 100 100 100 100 100 100 100 100 100 100 99 51 28 93 100 100 100 100 100 100
0 11 100 99 99 100 100 100 95 100 100 100 100 100 100 100 100 100 100 100 100 100 100 100 100 100 100 100 100 100 100 100 91 100 100 100 100 100 100 100 100 100 100 100 100 100 100 100 100
4 4 39 100 100 99 95 66 94 94 97 95 100 100 100 100 100 100 100 100 100 100 100 100 100 100 100 100 100 100 100 100 100 70 92 100 100 100 100 100 100 100 100 100 100 100 100 100 100
35 11 42 99 99 100 96 26 100 100 100 100 100 100 100 100 100 100 100 100 100 100 100 100 100 100 100 100 100 100 100 100 100 100 100 100 100 100 100 100 100 100 100 100 100 100 100 100 100
77 18 13 7 92 100 100 82 72 85 93 100 98 100 100 100 100 100 100 100 100 100 100 100 100 100 100 100 100 100 100 100 100 100 100 100 100 100 100 83 42 59 94 100 100 100 100 100 100